TimeCST,TemperatureF,Dew PointF,Humidity,Sea Level PressureIn,VisibilityMPH,Wind Direction,Wind SpeedMPH,Gust SpeedMPH,PrecipitationIn,Events,Conditions,WindDirDegrees,DateUTC
12:53 AM,21.0,12.0,68,29.99,10.0,Calm,Calm,-,N/A,,Clear,0,2012-12-14 06:53:00
1:53 AM,21.0,12.0,68,29.96,10.0,Calm,Calm,-,N/A,,Clear,0,2012-12-14 07:53:00
2:53 AM,16.0,8.1,71,29.95,10.0,Calm,Calm,-,N/A,,Clear,0,2012-12-14 08:53:00
3:53 AM,15.1,8.1,74,29.94,10.0,West,4.6,-,N/A,,Clear,270,2012-12-14 09:53:00
4:53 AM,12.0,7.0,80,29.95,10.0,SW,5.8,-,N/A,,Clear,220,2012-12-14 10:53:00
5:53 AM,12.9,8.1,81,29.94,10.0,West,4.6,-,N/A,,Clear,280,2012-12-14 11:53:00
6:53 AM,17.1,10.9,77,29.92,10.0,West,9.2,-,N/A,,Clear,280,2012-12-14 12:53:00
7:53 AM,14.0,8.1,77,29.91,9.0,WNW,4.6,-,N/A,,Clear,290,2012-12-14 13:53:00
8:53 AM,17.1,10.9,77,29.91,9.0,WSW,5.8,-,N/A,,Clear,250,2012-12-14 14:53:00
9:53 AM,23.0,14.0,68,29.88,10.0,NW,3.5,-,N/A,,Clear,310,2012-12-14 15:53:00
10:53 AM,27.0,15.1,61,29.88,10.0,Calm,Calm,-,N/A,,Clear,0,2012-12-14 16:53:00
11:53 AM,32.0,18.0,56,29.84,10.0,Calm,Calm,-,N/A,,Clear,0,2012-12-14 17:53:00
12:53 PM,34.0,18.0,52,29.79,10.0,ESE,3.5,-,N/A,,Scattered Clouds,120,2012-12-14 18:53:00
1:53 PM,37.0,19.0,48,29.75,10.0,Variable,3.5,-,N/A,,Overcast,0,2012-12-14 19:53:00
2:53 PM,37.0,19.0,48,29.71,10.0,East,5.8,-,N/A,,Overcast,90,2012-12-14 20:53:00
3:53 PM,36.0,26.1,67,29.76,10.0,SSE,5.8,-,0.00,,Overcast,150,2012-12-14 21:53:00
4:53 PM,34.0,28.0,79,29.70,6.0,NE,8.1,-,0.01,Rain,Light Rain,40,2012-12-14 22:53:00
5:53 PM,35.1,28.9,78,29.68,10.0,Calm,Calm,-,0.07,,Overcast,0,2012-12-14 23:53:00
6:20 PM,35.6,30.2,81,29.59,10.0,NW,6.9,-,N/A,,Overcast,320,2012-12-15 00:20:00
6:46 PM,33.8,30.2,87,29.56,10.0,North,5.8,-,N/A,,Overcast,350,2012-12-15 00:46:00
6:53 PM,35.1,30.9,85,29.64,10.0,NNE,4.6,-,N/A,,Overcast,30,2012-12-15 00:53:00
7:53 PM,35.1,32.0,89,29.64,10.0,Calm,Calm,-,N/A,,Overcast,0,2012-12-15 01:53:00
8:53 PM,34.0,32.0,92,29.60,3.0,North,8.1,-,0.00,,Overcast,360,2012-12-15 02:53:00
9:00 PM,33.8,32.0,93,29.52,2.0,North,8.1,-,0.00,,Overcast,360,2012-12-15 03:00:00
9:09 PM,33.8,33.8,100,29.52,1.8,North,8.1,-,0.01,,Overcast,360,2012-12-15 03:09:00
9:21 PM,33.8,33.8,100,29.51,2.5,NNE,9.2,-,0.01,,Overcast,20,2012-12-15 03:21:00
9:31 PM,33.8,33.8,100,29.50,3.0,NNE,6.9,-,0.01,,Overcast,20,2012-12-15 03:31:00
9:43 PM,35.6,33.8,93,29.49,2.0,North,6.9,-,0.01,,Overcast,360,2012-12-15 03:43:00
9:53 PM,35.1,34.0,96,29.55,2.0,North,8.1,-,0.01,,Overcast,10,2012-12-15 03:53:00
10:24 PM,35.6,33.8,93,29.47,3.0,North,6.9,-,N/A,,Overcast,360,2012-12-15 04:24:00
10:45 PM,35.6,35.6,100,29.47,2.5,North,8.1,-,0.00,,Overcast,360,2012-12-15 04:45:00
10:53 PM,36.0,34.0,93,29.52,2.0,North,8.1,-,0.01,Rain,Light Rain,360,2012-12-15 04:53:00
11:11 PM,35.6,33.8,93,29.47,1.8,North,6.9,-,0.03,Rain,Rain,350,2012-12-15 05:11:00
11:28 PM,35.6,35.6,100,29.46,2.5,North,12.7,-,0.06,Rain,Rain,350,2012-12-15 05:28:00
11:38 PM,35.6,35.6,100,29.45,3.0,North,11.5,-,0.07,Rain,Light Rain,350,2012-12-15 05:38:00
11:48 PM,35.6,35.6,100,29.45,3.0,NNW,10.4,-,0.07,Rain,Light Rain,340,2012-12-15 05:48:00
11:53 PM,36.0,35.1,97,29.50,3.0,NNW,9.2,-,0.08,Rain,Light Rain,340,2012-12-15 05:53:00